Location: Beaufort Park
(39.1418°N, 76.9433°W)
Time: 20:34:48
(UTC+00:00)

Cosmos 2227 Rocket - Pass Details

Date: 29 October 2020
Orbit: 838 x 845 km, 71.0° (Epoch: 02 December)

Event Time Altitude Azimuth Distance (km) Brightness Sun altitude
Rises 23:41:29 0° 333° (NNW) 3,405 5.7 -18.3°
Reaches altitude 10° 23:43:57 10° 330° (NNW) 2,467 5.0 -18.8°
Maximum altitude 23:49:31 61° 251° (WSW) 954 2.7 -19.9°
Drops below altitude 10° 23:55:04 10° 173° (S) 2,456 4.5 -20.9°
Sets 23:57:31 0° 169° (S) 3,387 5.2 -21.4°
